Showing default

GHGSAT-C1, 46278

Orbit data source: Space-Track

GHGSAT-C1, 46278 is a payload satellite owned by GHG (CA) in SSO that was launched on Thu, 03 Sep 2020 UTC via a VEGA launch vehicle from the French Guiana (FRGUI). Payload-class satellites include a variety of spacecraft equipped with specific instruments for various scientific and technological missions. These include communications satellites like Starlink; space stations such as the ISS; scientific satellites like the Hubble; Earth observation satellites from companies like Planet Labs, Umbra, and HawkEye 360; GPS; miniature CubeSats for education and research; and military/defense satellites.

Loading next visibility...
Identifier
46278, 2020-061G
Orbit
SSO
Country
Flag of CACA
Related business
Manufacturer
UTIAS-SFL
Mission
Operational Commercial Earth Obs Sci
Bus & Motor
NEMO-V1, Unknown motor
Mass
15 kg wet, 15 kg dry
Launch date (UTC)
2020-09-03 (6 years ago)
Launch vehicle
VEGA
Launch site
French Guiana (FRGUI)
Object type
Payload
Rocket body
Debris
Shape & HBR
Box, 1.0 m
Radar Cross Section
0.100 m², Medium (>0.1 m² and < 1m²)

Expand to show TLE details & history
Last TLE update: 6 hours ago

TLE from 6 hours ago
0 GHGSAT-C1
1 46278U 20061G   26166.18939453  .00031215  00000-0  24705-3 0  9992
2 46278  97.2111 251.2467 0001597  90.4495 269.6951 15.71290679323160
Epoch: 2026-06-15T04:32Z
TLE epoch observation values (Epoch: 2026-06-15T04:32:43.687Z)
Latitude
-0.00005°
Longitude
-80.41467°
Altitude
358.378 km
Speed
7.694 km/s
True Right ascension
16h 44m 59s
True Declination
0° 00' 00"
Sunlit
Object was in full shadow at epoch
Visualization orbit readout
Latitude
Unknown
Longitude
Unknown
Altitude
Unknown
Speed
Unknown
Apparent Right ascension
Unknown
Apparent Declination
Unknown
Sunlit
N/A
Visualization observer readout
Local Sidereal Time
21:35:57
Azimuth
Unknown
Elevation
Unknown
Doppler factor
Unknown
Orbital elements
Apogee altitude
353.171 km
Perigee altitude
351.022 km
Semi-major axis
6,730.234 km
Eccentricity
0.00016
Inclination
97.2111°
RAAN
251.2467°
Arg. of periapsis
90.4495°
True anomaly
269.6768°
Mean anomaly
269.6951°
Eccentric anomaly
269.68595°
Mean motion
3.93095 °/min
Orbital period
91.58 mins
BSTAR
0.00024705
Loading maneuver chart data...
Computing Atmospheric mass density...

Documentation

Showing up to 5 results
|